209  
NZUS93 KARX 310610  
HRRWXR  
 
CURRENT HOURLY OBSERVATIONS ACROSS  
MUCH OF THE UPPER MISSISSIPPI VALLEY  
NATIONAL WEATHER SERVICE LA CROSSE WI  
100 AM CDT MON AUG 31 2015  
 
   
..SOUTHEAST MINNESOTA
 
 
 
CITY SKY/WX TMP DP RH WIND PRES REMARKS  
ROCHESTER FAIR 60 59 96 S8 30.00R FOG  
ROCHESTER/MAYO FAIR 63 63 100 SE5 29.99S  
WINONA FAIR 61 61 100 CALM 29.99S FOG  
AUSTIN NOT AVBL  
ALBERT LEA FAIR 64 63 94 S6 29.99R FOG  
DODGE CENTER FAIR 64 63 94 S6 29.98F  
PRESTON FAIR 61 59 94 S6 30.01S FOG  
OWATONNA FAIR 64 63 94 S8 29.97S  
FARIBAULT FAIR 63 63 100 S6 29.96S  

 
   
..ELSEWHERE IN MINNESOTA
 
 
 
CITY SKY/WX TMP DP RH WIND PRES REMARKS  
MINNEAPOLIS MOCLDY 67 63 87 SE6 29.93S  
INTNL FALLS FAIR 69 66 90 S3 29.77F  
DULUTH FAIR 66 64 93 SW9 29.90S  
RED WING FAIR 64 63 94 CALM 29.96S  
REDWOOD FALLS FAIR 67 64 90 S10 29.89S  
MANKATO FAIR 64 61 88 S7 29.94F  
WORTHINGTON FAIR 64 61 88 S15 29.93F  
FAIRMONT FAIR 64 61 88 S8 29.95S  

 
   
..SOUTHWEST WISCONSIN
 
 
 
CITY SKY/WX TMP DP RH WIND PRES REMARKS  
LA CROSSE FAIR 64 63 96 SE3 29.99S FOG  
PRAIRIE DU CHI FAIR 62 60 95 CALM 30.01S FOG  
BOSCOBEL FOG 59 58 96 CALM 30.02S VSB 1/4  
LONE ROCK FOG 59 58 96 CALM 30.03S VSB 1/4  
PLATTEVILLE FAIR 62 62 99 S5 30.03S  
FORT MC COY FAIR 56 55 95 CALM 30.02R  
CAMP DOUGLAS FOG 55 55 100 E1 30.00S VSB 1/2  
VIROQUA N/A 61 61 100 SW3 30.02S  
WIS DELLS FAIR 61 59 94 CALM 30.02S FOG  

 
   
..ELSEWHERE IN WISCONSIN
 
 
 
CITY SKY/WX TMP DP RH WIND PRES REMARKS  
MILWAUKEE FAIR 63 60 90 SW3 30.03S FOG  
MADISON FAIR 66 62 87 CALM 30.02S  
GREEN BAY FAIR 63 61 93 S3 30.00S FOG  
EAU CLAIRE FAIR 62 60 93 S5 29.97R  
BLACK RVR FLS FOG 54 54 100 CALM 30.00R VSB<1/4  
MEDFORD FOG 58 58 100 S3 30.01S VSB 1/4  
WAUSAU FAIR 62 61 96 SW5 29.99S FOG  
WIS RAPIDS FOG 61 59 93 SW3 30.01S VSB 3/4  
MARSHFIELD FOG 61 58 90 SW6 30.01R VSB 1/4  
RICE LAKE FAIR 61 60 94 SE6 29.98S  

 
   
..NORTHEAST IOWA
 
 
 
CITY SKY/WX TMP DP RH WIND PRES REMARKS  
DECORAH CLOUDY 63 63 100 S7 30.01S FOG  
MASON CITY FAIR 59 59 100 S7 30.01S FOG  
CHARLES CITY MOCLDY 63 63 100 S5 30.02R FOG  
OELWEIN FAIR 61 61 100 S5 30.02 FOG  

 
   
..ELSEWHERE IN IOWA
 
 
 
CITY SKY/WX TMP DP RH WIND PRES REMARKS  
DES MOINES FAIR 69 65 86 SE6 29.99S  
IOWA CITY FAIR 63 62 97 CALM 30.03S FOG  
FORT DODGE FAIR 64 61 88 S3 30.00S  

 
   
..NORTHERN ILLINOIS
 
 
 
CITY SKY/WX TMP DP RH WIND PRES REMARKS  
CHICAGO-OHARE FAIR 63 62 97 SE3 30.04S FOG  
CHICAGO-MIDWAY FAIR 68 64 87 CALM 30.04S  
MOLINE FAIR 63 60 90 E3 30.02S FOG  
ROCKFORD FAIR 62 59 90 CALM 30.05S  
PEORIA FAIR 70 66 87 CALM 30.03S  

 
 
NOTE: "FAIR" INDICATES FEW OR NO CLOUDS BELOW 12,000 FEET WITH NO  
SIGNIFICANT WEATHER AND/OR OBSTRUCTIONS TO VISIBILITY. WIND  
SPEEDS ARE IN MILES-PER-HOUR.  
 
CLICK HERE TO GO TO PREVIOUS BULLETINS.

The Nexlab WI Page
The Nexlab IA Page
The Nexlab MN Page Main Text Page